Location: Viterbo
(42.4170°N, 12.1000°E)
Time: 05:10:48
(UTC+01:00)

ISS - Pass Details

Date: 27 February 2019
Orbit: 406 x 411 km, 51.6° (Epoch: 21 March)

Event Time Altitude Azimuth Distance (km) Brightness Sun altitude
Exits shadow 06:19:08 - 269° (W) 1,567 -1.5 -6.7°
Reaches altitude 10° 06:19:25 10° 272° (W) 1,462 -1.7 -6.6°
Maximum altitude 06:22:24 31° 337° (NNW) 733 -2.8 -6.1°
Drops below altitude 10° 06:25:23 10° 42° (NE) 1,468 -0.5 -5.5°
Sets 06:27:37 0° 53° (NE) 2,331 0.8 -5.1°
